Dades meteomassalio
Diari Summary for Maig 5, 2017 Units:  Metric    English   Both
« Previous Day
Next Day »
Diari Semanal Mensual Anual Personalitzat
  Maxima: Minima: Mijana:
Temperatura: 22.8 °C 12.9 °C 17.4 °C
Rosada: 12.8 °C 8.2 °C 11 °C
Humitat: 85 % 42 % 68 %
Velocitat del vent: 44.4 km/h 0.0 km/h 11.8 km/h
Racha vent: 44.4 km/h - -
Vent:- - ESE
Pressio: 1012.8 hPa 1007.0 hPa -
Pluja: 0.0 mm    
Historical Graphs
 
 
Tabular Data for Maig 5, 2017
Time Temperature Dew Point Pressure Wind Wind Speed Wind Gust Humidity Rainfall Rate (Hourly) solar Conditions
00:03 16.4 °C 12.3 °C 1010.7 hPa SSE 4.8 km/h 4.8 km/h 77 % 0.0 mm 0.0 W/m2 CLR
00:08 16.4 °C 12.3 °C 1010.7 hPa Calm     77 % 0.0 mm 0.0 W/m2 CLR
00:13 16.4 °C 12.3 °C 1010.7 hPa Calm     77 % 0.0 mm 0.0 W/m2 CLR
00:18 16.4 °C 12.4 °C 1010.7 hPa Calm     77 % 0.0 mm 0.0 W/m2 CLR
00:23 16.4 °C 12.4 °C 1011.1 hPa Calm     77 % 0.0 mm 0.0 W/m2 CLR
00:28 16.4 °C 12.4 °C 1011.1 hPa Calm     77 % 0.0 mm 0.0 W/m2 CLR
00:33 16.3 °C 12.3 °C 1010.7 hPa Calm     77 % 0.0 mm 0.0 W/m2 CLR
00:38 16.2 °C 12.2 °C 1011.1 hPa Calm     77 % 0.0 mm 0.0 W/m2 CLR
00:43 16.1 °C 12.3 °C 1011.1 hPa Calm     78 % 0.0 mm 0.0 W/m2 CLR
00:48 16.1 °C 12.4 °C 1010.7 hPa Calm     79 % 0.0 mm 0.0 W/m2 CLR
00:53 15.9 °C 12.3 °C 1010.7 hPa Calm     79 % 0.0 mm 0.0 W/m2 CLR
00:58 15.9 °C 12.2 °C 1010.7 hPa Calm     79 % 0.0 mm 0.0 W/m2 CLR
01:03 15.8 °C 12.2 °C 1010.7 hPa Calm     79 % 0.0 mm 0.0 W/m2 CLR
01:08 15.7 °C 12.3 °C 1010.7 hPa Calm     80 % 0.0 mm 0.0 W/m2 CLR
01:13 15.6 °C 12.2 °C 1010.7 hPa Calm     80 % 0.0 mm 0.0 W/m2 CLR
01:18 15.6 °C 12.3 °C 1010.7 hPa Calm     81 % 0.0 mm 0.0 W/m2 CLR
01:23 15.4 °C 12.2 °C 1010.7 hPa Calm     81 % 0.0 mm 0.0 W/m2 CLR
01:28 15.3 °C 12.1 °C 1010.7 hPa Calm     81 % 0.0 mm 0.0 W/m2 CLR
01:33 15.2 °C 12.2 °C 1010.7 hPa Calm     82 % 0.0 mm 0.0 W/m2 CLR
01:38 15.1 °C 12.1 °C 1010.7 hPa Calm     82 % 0.0 mm 0.0 W/m2 CLR
01:43 15.1 °C 12.2 °C 1010.7 hPa Calm     83 % 0.0 mm 0.0 W/m2 CLR
01:48 15.0 °C 12.1 °C 1010.7 hPa Calm     83 % 0.0 mm 0.0 W/m2 CLR
01:53 14.9 °C 12.1 °C 1010.7 hPa Calm     83 % 0.0 mm 0.0 W/m2 CLR
01:58 14.9 °C 12.0 °C 1010.7 hPa Calm     83 % 0.0 mm 0.0 W/m2 CLR
02:03 14.8 °C 12.2 °C 1010.7 hPa Calm     84 % 0.0 mm 0.0 W/m2 CLR
02:08 14.8 °C 12.1 °C 1010.7 hPa Calm     84 % 0.0 mm 0.0 W/m2 CLR
02:13 14.7 °C 12.1 °C 1010.7 hPa Calm     84 % 0.0 mm 0.0 W/m2 CLR
02:18 14.7 °C 12.0 °C 1010.7 hPa Calm     84 % 0.0 mm 0.0 W/m2 CLR
02:23 14.7 °C 12.2 °C 1010.7 hPa Calm     85 % 0.0 mm 0.0 W/m2 CLR
02:28 14.7 °C 12.0 °C 1010.7 hPa Calm     84 % 0.0 mm 0.0 W/m2 CLR
02:33 14.6 °C 11.9 °C 1010.4 hPa Calm     84 % 0.0 mm 0.0 W/m2 CLR
02:38 14.6 °C 12.1 °C 1010.4 hPa ENE 3.7 km/h 3.7 km/h 85 % 0.0 mm 0.0 W/m2 CLR
02:43 14.6 °C 11.9 °C 1010.4 hPa Calm     84 % 0.0 mm 0.0 W/m2 CLR
02:48 14.5 °C 11.8 °C 1010.4 hPa Calm     84 % 0.0 mm 0.0 W/m2 CLR
02:53 14.4 °C 11.9 °C 1010.4 hPa Calm     85 % 0.0 mm 0.0 W/m2 CLR
02:58 14.4 °C 11.9 °C 1010.4 hPa ESE 5.6 km/h 5.6 km/h 85 % 0.0 mm 0.0 W/m2 CLR
03:03 14.5 °C 12.0 °C 1010.0 hPa Calm     85 % 0.0 mm 0.0 W/m2 CLR
03:08 14.5 °C 11.8 °C 1010.4 hPa Calm     84 % 0.0 mm 0.0 W/m2 CLR
03:13 14.4 °C 11.8 °C 1010.4 hPa Calm     84 % 0.0 mm 0.0 W/m2 CLR
03:18 14.4 °C 11.8 °C 1010.0 hPa Calm     84 % 0.0 mm 0.0 W/m2 CLR
03:23 14.3 °C 11.7 °C 1010.0 hPa Calm     84 % 0.0 mm 0.0 W/m2 CLR
03:28 14.2 °C 11.6 °C 1010.0 hPa Calm     84 % 0.0 mm 0.0 W/m2 CLR
03:33 14.2 °C 11.5 °C 1009.7 hPa Calm     84 % 0.0 mm 0.0 W/m2 CLR
03:38 14.1 °C 11.4 °C 1010.0 hPa Calm     84 % 0.0 mm 0.0 W/m2 CLR
03:43 14.1 °C 11.4 °C 1009.7 hPa Calm     84 % 0.0 mm 0.0 W/m2 CLR
03:48 14.0 °C 11.3 °C 1010.0 hPa Calm     84 % 0.0 mm 0.0 W/m2 CLR
03:53 13.8 °C 11.2 °C 1010.0 hPa Calm     84 % 0.0 mm 0.0 W/m2 CLR
03:58 13.8 °C 11.3 °C 1010.0 hPa Calm     85 % 0.0 mm 0.0 W/m2 CLR
04:03 13.9 °C 11.2 °C 1010.0 hPa Calm     84 % 0.0 mm 0.0 W/m2 CLR
04:09 14.1 °C 11.4 °C 1010.0 hPa Calm   0.5 km/h 84 % 0.0 mm 0.0 W/m2 CLR
04:14 14.1 °C 11.3 °C 1009.7 hPa Calm     83 % 0.0 mm 0.0 W/m2 CLR
04:19 14.1 °C 11.4 °C 1010.0 hPa Calm     84 % 0.0 mm 0.0 W/m2 CLR
04:24 14.1 °C 11.4 °C 1010.0 hPa Calm     84 % 0.0 mm 0.0 W/m2 CLR
04:29 13.9 °C 10.9 °C 1010.0 hPa Calm     82 % 0.0 mm 0.0 W/m2 CLR
04:34 13.8 °C 10.9 °C 1010.0 hPa Calm     83 % 0.0 mm 0.0 W/m2 CLR
04:39 13.7 °C 11.1 °C 1010.0 hPa Calm     84 % 0.0 mm 0.0 W/m2 CLR
04:44 13.7 °C 11.0 °C 1010.0 hPa Calm     84 % 0.0 mm 0.0 W/m2 CLR
04:49 13.6 °C 10.9 °C 1010.0 hPa Calm     84 % 0.0 mm 0.0 W/m2 CLR
04:54 13.5 °C 10.8 °C 1010.0 hPa Calm     84 % 0.0 mm 0.0 W/m2 CLR
04:59 13.5 °C 11.0 °C 1010.0 hPa Calm     85 % 0.0 mm 0.0 W/m2 CLR
05:04 13.4 °C 10.7 °C 1010.4 hPa Calm     84 % 0.0 mm 0.0 W/m2 CLR
05:09 13.3 °C 10.6 °C 1010.0 hPa Calm     84 % 0.0 mm 0.0 W/m2 CLR
05:14 13.2 °C 10.8 °C 1010.4 hPa Calm     85 % 0.0 mm 0.0 W/m2 CLR
05:19 13.2 °C 10.7 °C 1010.4 hPa Calm     85 % 0.0 mm 0.0 W/m2 CLR
05:24 13.2 °C 10.7 °C 1010.4 hPa Calm     85 % 0.0 mm 0.0 W/m2 CLR
05:29 13.1 °C 10.6 °C 1010.4 hPa Calm     85 % 0.0 mm 0.0 W/m2 CLR
05:34 13.1 °C 10.6 °C 1010.4 hPa Calm     85 % 0.0 mm 0.0 W/m2 CLR
05:39 13.0 °C 10.6 °C 1010.4 hPa Calm     85 % 0.0 mm 0.0 W/m2 CLR
05:44 13.0 °C 10.6 °C 1010.4 hPa Calm     85 % 0.0 mm 0.0 W/m2 CLR
05:49 12.9 °C 10.5 °C 1010.0 hPa Calm     85 % 0.0 mm 0.0 W/m2 CLR
05:54 12.9 °C 10.5 °C 1010.0 hPa Calm     85 % 0.0 mm 0.0 W/m2 CLR
05:59 12.9 °C 10.4 °C 1010.0 hPa NE 5.6 km/h 5.6 km/h 85 % 0.0 mm 0.0 W/m2 CLR
06:04 13.0 °C 10.6 °C 1010.0 hPa East 5.6 km/h 5.6 km/h 85 % 0.0 mm 0.0 W/m2 CLR
06:09 13.1 °C 10.7 °C 1010.0 hPa Calm     85 % 0.0 mm 0.0 W/m2 CLR
06:14 13.2 °C 10.5 °C 1010.0 hPa Calm     84 % 0.0 mm 0.0 W/m2 CLR
06:19 13.1 °C 10.2 °C 1010.0 hPa Calm     83 % 0.0 mm 0.0 W/m2 CLR
06:24 12.9 °C 10.1 °C 1010.0 hPa Calm     83 % 0.0 mm 0.0 W/m2 CLR
06:29 12.9 °C 10.3 °C 1010.0 hPa Calm     84 % 0.0 mm 0.0 W/m2 CLR
06:34 13.1 °C 10.4 °C 1010.0 hPa Calm     84 % 0.0 mm 0.0 W/m2 CLR
06:39 13.0 °C 10.3 °C 1010.0 hPa NNE 5.6 km/h 5.6 km/h 84 % 0.0 mm 0.0 W/m2 CLR
06:44 13.1 °C 10.4 °C 1009.7 hPa Calm     84 % 0.0 mm 0.0 W/m2 OVC
06:49 13.2 °C 10.5 °C 1009.7 hPa Calm     84 % 0.0 mm 0.0 W/m2 OVC
06:54 13.2 °C 10.6 °C 1010.0 hPa Calm     84 % 0.0 mm 0.0 W/m2 OVC
06:59 13.2 °C 10.6 °C 1009.7 hPa Calm     84 % 0.0 mm 0.0 W/m2 OVC
07:04 13.3 °C 10.7 °C 1010.0 hPa ESE 1.9 km/h   84 % 0.0 mm 5.0 W/m2 OVC
07:09 13.4 °C 10.8 °C 1009.7 hPa Calm     84 % 0.0 mm 9.0 W/m2 BKN
07:14 13.5 °C 10.8 °C 1009.7 hPa SE 9.3 km/h 9.3 km/h 84 % 0.0 mm 12.0 W/m2 BKN
07:19 13.6 °C 10.9 °C 1009.7 hPa ESE 9.3 km/h 9.3 km/h 84 % 0.0 mm 14.0 W/m2 BKN
07:24 13.6 °C 10.8 °C 1009.7 hPa ESE 16.7 km/h 16.7 km/h 83 % 0.0 mm 18.0 W/m2 BKN
07:29 13.7 °C 10.9 °C 1009.7 hPa SE 14.8 km/h 14.8 km/h 83 % 0.0 mm 19.0 W/m2 BKN
07:34 13.8 °C 10.9 °C 1009.4 hPa SE 11.1 km/h 11.1 km/h 83 % 0.0 mm 21.0 W/m2 BKN
07:39 13.8 °C 10.9 °C 1009.7 hPa SE 7.4 km/h 7.4 km/h 83 % 0.0 mm 21.0 W/m2 BKN
07:44 13.8 °C 11.0 °C 1010.0 hPa Calm     83 % 0.0 mm 23.0 W/m2 BKN
07:49 13.9 °C 10.9 °C 1010.0 hPa Calm     82 % 0.0 mm 26.0 W/m2 BKN
07:54 13.9 °C 10.9 °C 1010.0 hPa ESE 5.6 km/h 5.6 km/h 82 % 0.0 mm 39.0 W/m2 BKN
07:59 14.1 °C 11.1 °C 1010.0 hPa ENE 5.6 km/h 5.6 km/h 82 % 0.0 mm 63.0 W/m2 BKN
08:04 14.0 °C 11.0 °C 1010.0 hPa Calm     82 % 0.0 mm 135.0 W/m2 SCT
08:09 14.2 °C 11.3 °C 1010.0 hPa Calm     83 % 0.0 mm 167.0 W/m2 CLR
08:14 14.4 °C 11.3 °C 1010.4 hPa Calm     82 % 0.0 mm 125.0 W/m2 CLR
08:20 14.6 °C 11.4 °C 1010.4 hPa Calm     81 % 0.0 mm 209.0 W/m2 CLR
08:25 14.9 °C 11.4 °C 1010.7 hPa Calm     80 % 0.0 mm 204.0 W/m2 CLR
08:30 15.2 °C 11.4 °C 1010.7 hPa ENE 1.9 km/h 5.0 km/h 78 % 0.0 mm 139.0 W/m2 CLR
08:35 15.3 °C 11.1 °C 1010.7 hPa NE 5.6 km/h   76 % 0.0 mm 121.0 W/m2 CLR
08:40 15.4 °C 10.8 °C 1011.4 hPa ENE 5.6 km/h 5.6 km/h 74 % 0.0 mm 171.0 W/m2 CLR
08:45 15.6 °C 10.7 °C 1011.4 hPa ENE 3.2 km/h   73 % 0.0 mm 239.0 W/m2 CLR
08:50 15.8 °C 10.6 °C 1011.7 hPa Calm     71 % 0.0 mm 236.0 W/m2 CLR
08:55 16.1 °C 10.8 °C 1011.7 hPa Calm     71 % 0.0 mm 311.0 W/m2 CLR
09:00 16.3 °C 10.8 °C 1011.7 hPa Calm     70 % 0.0 mm 271.0 W/m2 CLR
09:05 16.4 °C 10.5 °C 1012.1 hPa Calm     68 % 0.0 mm 257.0 W/m2 CLR
09:10 16.4 °C 10.7 °C 1011.7 hPa Calm     69 % 0.0 mm 178.0 W/m2 CLR
09:15 16.4 °C 10.5 °C 1012.1 hPa Calm     68 % 0.0 mm 156.0 W/m2 CLR
09:20 16.4 °C 10.7 °C 1012.1 hPa Calm     69 % 0.0 mm 156.0 W/m2 CLR
09:25 16.7 °C 10.9 °C 1012.1 hPa Calm     69 % 0.0 mm 237.0 W/m2 CLR
09:30 16.9 °C 10.8 °C 1012.1 hPa Calm     67 % 0.0 mm 199.0 W/m2 CLR
09:35 17.2 °C 11.1 °C 1012.4 hPa Calm     67 % 0.0 mm 432.0 W/m2 CLR
09:40 17.4 °C 11.2 °C 1012.8 hPa Calm     67 % 0.0 mm 167.0 W/m2 CLR
09:45 17.4 °C 11.0 °C 1012.8 hPa Calm     66 % 0.0 mm 186.0 W/m2 CLR
09:50 17.4 °C 11.2 °C 1012.8 hPa Calm     67 % 0.0 mm 262.0 W/m2 CLR
09:55 17.6 °C 11.3 °C 1012.8 hPa Calm     67 % 0.0 mm 515.0 W/m2 CLR
10:00 17.8 °C 11.2 °C 1012.8 hPa SW 5.6 km/h 5.6 km/h 65 % 0.0 mm 548.0 W/m2 CLR
10:05 17.8 °C 11.1 °C 1012.4 hPa Calm     65 % 0.0 mm 364.0 W/m2 CLR
10:10 17.7 °C 11.1 °C 1012.8 hPa Calm     65 % 0.0 mm 218.0 W/m2 CLR
10:15 17.8 °C 11.1 °C 1012.4 hPa ESE 6.4 km/h 6.4 km/h 65 % 0.0 mm 234.0 W/m2 CLR
10:20 17.8 °C 10.9 °C 1012.1 hPa ESE 5.6 km/h 5.6 km/h 64 % 0.0 mm 158.0 W/m2 CLR
10:25 17.8 °C 11.2 °C 1011.7 hPa ESE 11.1 km/h 11.1 km/h 65 % 0.0 mm 162.0 W/m2 CLR
10:30 17.8 °C 11.2 °C 1011.7 hPa ENE 1.9 km/h   65 % 0.0 mm 165.0 W/m2 CLR
10:35 17.9 °C 11.5 °C 1011.7 hPa ENE 4.8 km/h 4.8 km/h 66 % 0.0 mm 116.0 W/m2 CLR
10:40 18.0 °C 11.3 °C 1011.7 hPa ESE 14.8 km/h 14.8 km/h 65 % 0.0 mm 107.0 W/m2 CLR
10:45 17.9 °C 11.2 °C 1011.7 hPa ENE 18.5 km/h 18.5 km/h 65 % 0.0 mm 97.0 W/m2 CLR
10:50 17.8 °C 11.2 °C 1011.4 hPa East 18.5 km/h 18.5 km/h 65 % 0.0 mm 97.0 W/m2 CLR
10:55 17.7 °C 11.2 °C 1011.7 hPa ESE 18.5 km/h 18.5 km/h 66 % 0.0 mm 116.0 W/m2 CLR
11:00 17.7 °C 11.4 °C 1011.4 hPa East 12.9 km/h 12.9 km/h 67 % 0.0 mm 116.0 W/m2 CLR
11:05 17.6 °C 11.4 °C 1011.1 hPa ESE 13.0 km/h 13.0 km/h 67 % 0.0 mm 162.0 W/m2 CLR
11:10 17.6 °C 11.4 °C 1010.7 hPa ESE 22.2 km/h 22.2 km/h 67 % 0.0 mm 248.0 W/m2 CLR
11:15 17.7 °C 11.2 °C 1011.1 hPa ESE 18.5 km/h 18.5 km/h 66 % 0.0 mm 255.0 W/m2 CLR
11:20 17.7 °C 11.5 °C 1010.7 hPa ESE 14.8 km/h 14.8 km/h 67 % 0.0 mm 281.0 W/m2 CLR
11:25 17.8 °C 11.4 °C 1010.7 hPa SE 22.2 km/h 22.2 km/h 66 % 0.0 mm 376.0 W/m2 CLR
11:31 18.3 °C 11.6 °C 1010.7 hPa East 25.9 km/h 25.9 km/h 65 % 0.0 mm 536.0 W/m2 CLR
11:36 18.8 °C 11.4 °C 1010.4 hPa ESE 29.6 km/h 29.6 km/h 62 % 0.0 mm 740.0 W/m2 CLR
11:41 18.6 °C 11.2 °C 1010.0 hPa SE 25.9 km/h 25.9 km/h 62 % 0.0 mm 334.0 W/m2 CLR
11:46 18.6 °C 11.1 °C 1010.0 hPa ESE 24.1 km/h 24.1 km/h 62 % 0.0 mm 380.0 W/m2 CLR
11:51 18.4 °C 11.0 °C 1010.0 hPa SE 25.9 km/h 25.9 km/h 62 % 0.0 mm 325.0 W/m2 CLR
11:56 18.6 °C 11.4 °C 1010.0 hPa SE 9.7 km/h 9.7 km/h 63 % 0.0 mm 323.0 W/m2 CLR
12:01 18.9 °C 11.2 °C 1009.7 hPa SE 24.1 km/h 24.1 km/h 61 % 0.0 mm 334.0 W/m2 CLR
12:06 18.8 °C 11.4 °C 1009.7 hPa ESE 20.4 km/h 20.4 km/h 62 % 0.0 mm 397.0 W/m2 CLR
12:11 19.1 °C 11.6 °C 1009.4 hPa East 20.4 km/h 20.4 km/h 62 % 0.0 mm 540.0 W/m2 CLR
12:16 19.3 °C 11.6 °C 1009.4 hPa ESE 20.4 km/h 20.4 km/h 61 % 0.0 mm 585.0 W/m2 CLR
12:21 19.6 °C 11.8 °C 1009.4 hPa ESE 18.5 km/h 18.5 km/h 61 % 0.0 mm 411.0 W/m2 CLR
12:26 19.6 °C 11.9 °C 1009.4 hPa SE 14.8 km/h 14.8 km/h 61 % 0.0 mm 352.0 W/m2 CLR
12:31 19.6 °C 11.9 °C 1009.4 hPa ESE 13.0 km/h 13.0 km/h 61 % 0.0 mm 411.0 W/m2 CLR
12:36 19.7 °C 11.7 °C 1009.4 hPa East 24.1 km/h 24.1 km/h 60 % 0.0 mm 432.0 W/m2 CLR
12:41 19.5 °C 11.5 °C 1009.4 hPa East 29.6 km/h 29.6 km/h 60 % 0.0 mm 415.0 W/m2 CLR
12:46 19.7 °C 11.7 °C 1009.4 hPa ESE 24.1 km/h 24.1 km/h 60 % 0.0 mm 496.0 W/m2 CLR
12:51 19.9 °C 11.9 °C 1009.4 hPa ESE 16.7 km/h 16.7 km/h 60 % 0.0 mm 849.0 W/m2 CLR
12:56 20.1 °C 11.8 °C 1009.4 hPa ENE 18.5 km/h 18.5 km/h 59 % 0.0 mm 543.0 W/m2 CLR
13:01 20.2 °C 11.9 °C 1009.4 hPa East 20.4 km/h 20.4 km/h 59 % 0.0 mm 666.0 W/m2 CLR
13:06 20.5 °C 11.7 °C 1009.4 hPa SE 24.1 km/h 24.1 km/h 57 % 0.0 mm 404.0 W/m2 CLR
13:11 20.8 °C 11.4 °C 1009.4 hPa SE 29.6 km/h 29.6 km/h 55 % 0.0 mm 513.0 W/m2 CLR
13:16 21.3 °C 11.3 °C 1009.4 hPa SSE 27.8 km/h 27.8 km/h 53 % 0.0 mm 835.0 W/m2 CLR
13:21 21.5 °C 11.5 °C 1009.4 hPa SE 22.2 km/h 22.2 km/h 53 % 0.0 mm 944.0 W/m2 CLR
13:26 21.7 °C 11.4 °C 1009.4 hPa SE 18.5 km/h 18.5 km/h 52 % 0.0 mm 944.0 W/m2 CLR
13:31 22.1 °C 11.2 °C 1009.0 hPa East 27.8 km/h 27.8 km/h 50 % 0.0 mm 705.0 W/m2 CLR
13:36 22.3 °C 10.8 °C 1009.0 hPa ESE 25.9 km/h 25.9 km/h 48 % 0.0 mm 1035.0 W/m2 CLR
13:41 22.8 °C 10.9 °C 1009.0 hPa SE 33.3 km/h 33.3 km/h 47 % 0.0 mm 1021.0 W/m2 CLR
13:46 22.3 °C 9.4 °C 1009.4 hPa SE 35.2 km/h 35.2 km/h 44 % 0.0 mm 967.0 W/m2 CLR
13:51 22.0 °C 9.8 °C 1009.4 hPa SE 27.8 km/h 27.8 km/h 46 % 0.0 mm 921.0 W/m2 CLR
13:56 21.8 °C 9.7 °C 1009.0 hPa SE 38.9 km/h 38.9 km/h 46 % 0.0 mm 911.0 W/m2 CLR
14:01 21.9 °C 9.7 °C 1009.4 hPa SE 44.4 km/h 44.4 km/h 46 % 0.0 mm 904.0 W/m2 CLR
14:06 21.7 °C 9.8 °C 1009.4 hPa SE 25.9 km/h 25.9 km/h 47 % 0.0 mm 909.0 W/m2 CLR
14:11 21.6 °C 9.8 °C 1009.0 hPa SE 24.1 km/h 24.1 km/h 47 % 0.0 mm 898.0 W/m2 CLR
14:16 22.1 °C 9.9 °C 1009.4 hPa SE 31.5 km/h 31.5 km/h 46 % 0.0 mm 884.0 W/m2 CLR
14:21 22.0 °C 8.8 °C 1009.4 hPa ESE 37.0 km/h 37.0 km/h 43 % 0.0 mm 882.0 W/m2 CLR
14:26 22.1 °C 9.2 °C 1009.0 hPa SE 31.5 km/h 31.5 km/h 44 % 0.0 mm 877.0 W/m2 CLR
14:31 22.2 °C 9.1 °C 1009.4 hPa SE 31.5 km/h 31.5 km/h 43 % 0.0 mm 877.0 W/m2 CLR
14:36 21.9 °C 9.1 °C 1009.4 hPa SE 37.0 km/h 37.0 km/h 44 % 0.0 mm 881.0 W/m2 CLR
14:41 21.8 °C 9.1 °C 1009.4 hPa SE 31.5 km/h 31.5 km/h 44 % 0.0 mm 870.0 W/m2 CLR
14:46 21.7 °C 8.9 °C 1009.4 hPa SE 37.0 km/h 37.0 km/h 44 % 0.0 mm 875.0 W/m2 CLR
14:51 21.9 °C 8.7 °C 1009.4 hPa East 33.3 km/h 33.3 km/h 43 % 0.0 mm 877.0 W/m2 CLR
14:56 22.1 °C 8.6 °C 1009.0 hPa ESE 42.6 km/h 42.6 km/h 42 % 0.0 mm 867.0 W/m2 CLR
15:01 21.8 °C 8.7 °C 1009.0 hPa SE 37.0 km/h 37.0 km/h 43 % 0.0 mm 858.0 W/m2 CLR
15:06 21.7 °C 8.9 °C 1009.0 hPa ESE 38.9 km/h 38.9 km/h 44 % 0.0 mm 853.0 W/m2 CLR
15:11 21.8 °C 9.3 °C 1009.0 hPa SE 31.5 km/h 31.5 km/h 45 % 0.0 mm 835.0 W/m2 CLR
15:16 22.1 °C 8.9 °C 1008.7 hPa SE 42.6 km/h 42.6 km/h 43 % 0.0 mm 838.0 W/m2 CLR
15:21 21.9 °C 9.1 °C 1008.7 hPa ESE 35.2 km/h 35.2 km/h 44 % 0.0 mm 830.0 W/m2 CLR
15:26 22.1 °C 9.3 °C 1008.4 hPa SSE 31.5 km/h 31.5 km/h 44 % 0.0 mm 823.0 W/m2 CLR
15:31 21.8 °C 9.3 °C 1008.4 hPa ESE 37.0 km/h 37.0 km/h 45 % 0.0 mm 816.0 W/m2 CLR
15:36 21.8 °C 9.7 °C 1008.4 hPa ESE 37.0 km/h 37.0 km/h 46 % 0.0 mm 803.0 W/m2 CLR
15:41 21.9 °C 9.7 °C 1008.0 hPa SE 40.7 km/h 40.7 km/h 46 % 0.0 mm 795.0 W/m2 CLR
15:42 21.9 °C 9.7 °C 1008.0 hPa SE 40.7 km/h 40.7 km/h 46 % 0.0 mm 795.0 W/m2 CLR
15:47 21.8 °C 9.7 °C 1008.0 hPa ESE 43.4 km/h 43.4 km/h 46 % 0.0 mm 791.0 W/m2 CLR
15:52 21.8 °C 9.7 °C 1008.0 hPa ESE 42.6 km/h 42.6 km/h 46 % 0.0 mm 782.0 W/m2 CLR
15:57 21.7 °C 9.6 °C 1008.0 hPa SSE 33.8 km/h 33.8 km/h 46 % 0.0 mm 775.0 W/m2 CLR
16:02 21.8 °C 9.4 °C 1008.0 hPa ESE 42.6 km/h 42.6 km/h 45 % 0.0 mm 765.0 W/m2 CLR
16:07 21.7 °C 8.9 °C 1008.0 hPa SE 42.6 km/h 42.6 km/h 44 % 0.0 mm 758.0 W/m2 CLR
16:12 21.6 °C 8.8 °C 1008.4 hPa SE 44.4 km/h 44.4 km/h 44 % 0.0 mm 749.0 W/m2 CLR
16:17 21.3 °C 8.5 °C 1008.4 hPa SE 42.6 km/h 42.6 km/h 44 % 0.0 mm 737.0 W/m2 CLR
16:22 21.4 °C 8.7 °C 1008.4 hPa SSE 33.3 km/h 33.3 km/h 44 % 0.0 mm 726.0 W/m2 CLR
16:27 21.4 °C 8.6 °C 1008.4 hPa ESE 33.3 km/h 33.3 km/h 44 % 0.0 mm 717.0 W/m2 CLR
16:32 21.4 °C 8.9 °C 1008.4 hPa ESE 35.2 km/h 35.2 km/h 45 % 0.0 mm 710.0 W/m2 CLR
16:37 21.6 °C 9.2 °C 1008.4 hPa SE 20.9 km/h 23.2 km/h 45 % 0.0 mm 700.0 W/m2 CLR
16:42 21.7 °C 9.2 °C 1008.7 hPa ESE 31.5 km/h 31.5 km/h 45 % 0.0 mm 687.0 W/m2 CLR
16:47 21.8 °C 9.3 °C 1008.4 hPa SE 29.6 km/h 29.6 km/h 45 % 0.0 mm 679.0 W/m2 CLR
16:52 21.7 °C 8.9 °C 1008.0 hPa SE 31.5 km/h 31.5 km/h 44 % 0.0 mm 668.0 W/m2 CLR
16:57 21.3 °C 8.5 °C 1008.0 hPa ESE 42.6 km/h 42.6 km/h 44 % 0.0 mm 659.0 W/m2 CLR
17:02 21.4 °C 8.7 °C 1008.0 hPa SE 40.7 km/h 40.7 km/h 44 % 0.0 mm 652.0 W/m2 CLR
17:07 21.3 °C 8.2 °C 1008.0 hPa SE 40.7 km/h 40.7 km/h 43 % 0.0 mm 650.0 W/m2 CLR
17:12 21.1 °C 8.4 °C 1008.0 hPa SE 38.6 km/h 38.6 km/h 44 % 0.0 mm 598.0 W/m2 CLR
17:17 21.2 °C 8.4 °C 1008.0 hPa ESE 29.6 km/h 29.6 km/h 44 % 0.0 mm 642.0 W/m2 CLR
17:22 21.3 °C 8.2 °C 1008.0 hPa SE 37.0 km/h 37.0 km/h 43 % 0.0 mm 638.0 W/m2 CLR
17:27 21.6 °C 8.4 °C 1008.0 hPa ESE 25.9 km/h 25.9 km/h 43 % 0.0 mm 564.0 W/m2 CLR
17:32 21.4 °C 8.6 °C 1008.0 hPa SE 31.5 km/h 31.5 km/h 44 % 0.0 mm 290.0 W/m2 CLR
17:37 21.4 °C 8.6 °C 1008.0 hPa ESE 18.5 km/h 18.5 km/h 44 % 0.0 mm 642.0 W/m2 CLR
17:42 21.8 °C 8.7 °C 1008.0 hPa SSE 33.3 km/h 33.3 km/h 43 % 0.0 mm 568.0 W/m2 CLR
17:47 21.6 °C 8.8 °C 1008.0 hPa SE 22.2 km/h 22.2 km/h 44 % 0.0 mm 563.0 W/m2 CLR
17:52 21.7 °C 9.2 °C 1007.7 hPa SE 31.5 km/h 31.5 km/h 45 % 0.0 mm 471.0 W/m2 CLR
17:57 21.8 °C 9.0 °C 1007.7 hPa SE 27.8 km/h 27.8 km/h 44 % 0.0 mm 418.0 W/m2 CLR
18:02 21.6 °C 9.2 °C 1007.7 hPa SE 29.6 km/h 29.6 km/h 45 % 0.0 mm 301.0 W/m2 CLR
18:07 21.6 °C 9.1 °C 1007.7 hPa SSE 20.4 km/h 20.4 km/h 45 % 0.0 mm 223.0 W/m2 CLR
18:12 21.6 °C 9.5 °C 1007.7 hPa SSE 20.4 km/h 20.4 km/h 46 % 0.0 mm 265.0 W/m2 CLR
18:17 21.7 °C 9.6 °C 1007.3 hPa SE 24.1 km/h 24.1 km/h 46 % 0.0 mm 439.0 W/m2 CLR
18:22 21.9 °C 10.1 °C 1007.3 hPa SE 17.7 km/h 17.7 km/h 47 % 0.0 mm 485.0 W/m2 CLR
18:27 22.0 °C 10.2 °C 1007.3 hPa ESE 24.1 km/h 24.1 km/h 47 % 0.0 mm 466.0 W/m2 CLR
18:32 21.9 °C 10.4 °C 1007.3 hPa SE 24.1 km/h 24.1 km/h 48 % 0.0 mm 330.0 W/m2 CLR
18:38 21.7 °C 10.8 °C 1007.3 hPa SE 18.5 km/h 18.5 km/h 50 % 0.0 mm 348.0 W/m2 CLR
18:43 21.6 °C 11.3 °C 1007.3 hPa SE 24.1 km/h 24.1 km/h 52 % 0.0 mm 329.0 W/m2 CLR
18:47 21.3 °C 11.3 °C 1007.3 hPa ESE 20.4 km/h 20.4 km/h 53 % 0.0 mm 367.0 W/m2 CLR
18:53 21.4 °C 11.7 °C 1007.3 hPa ESE 16.1 km/h 16.1 km/h 54 % 0.0 mm 406.0 W/m2 CLR
18:58 21.2 °C 11.6 °C 1007.3 hPa SE 20.9 km/h 20.9 km/h 54 % 0.0 mm 343.0 W/m2 CLR
19:03 21.1 °C 12.0 °C 1007.3 hPa ESE 24.1 km/h 24.1 km/h 56 % 0.0 mm 352.0 W/m2 CLR
19:08 20.9 °C 12.1 °C 1007.3 hPa SE 24.1 km/h 24.1 km/h 57 % 0.0 mm 287.0 W/m2 CLR
19:13 20.4 °C 12.4 °C 1007.0 hPa East 14.8 km/h 14.8 km/h 60 % 0.0 mm 302.0 W/m2 CLR
19:18 20.2 °C 12.7 °C 1007.0 hPa ESE 18.5 km/h 18.5 km/h 62 % 0.0 mm 272.0 W/m2 CLR
19:23 19.8 °C 12.8 °C 1007.0 hPa ESE 24.1 km/h 24.1 km/h 64 % 0.0 mm 236.0 W/m2 CLR
19:28 19.7 °C 12.7 °C 1007.0 hPa SE 19.3 km/h 21.2 km/h 64 % 0.0 mm 211.0 W/m2 CLR
19:33 19.6 °C 12.8 °C 1007.0 hPa ESE 16.7 km/h 16.7 km/h 65 % 0.0 mm 190.0 W/m2 CLR
19:38 19.6 °C 12.8 °C 1007.0 hPa SSE 16.7 km/h 16.7 km/h 65 % 0.0 mm 167.0 W/m2 CLR
19:43 19.4 °C 12.6 °C 1007.0 hPa SE 18.5 km/h 18.5 km/h 65 % 0.0 mm 151.0 W/m2 CLR
19:48 19.3 °C 12.6 °C 1007.0 hPa SE 22.2 km/h 22.2 km/h 65 % 0.0 mm 134.0 W/m2 CLR
19:53 19.1 °C 12.6 °C 1007.0 hPa SE 18.5 km/h 18.5 km/h 66 % 0.0 mm 116.0 W/m2 CLR
19:58 19.0 °C 12.7 °C 1007.0 hPa SE 11.1 km/h 11.1 km/h 67 % 0.0 mm 98.0 W/m2 CLR
20:03 18.8 °C 12.6 °C 1007.3 hPa ESE 16.7 km/h 16.7 km/h 67 % 0.0 mm 60.0 W/m2 SCT
20:08 18.6 °C 12.6 °C 1007.0 hPa SE 16.7 km/h 16.7 km/h 68 % 0.0 mm 30.0 W/m2 BKN
20:13 18.4 °C 12.7 °C 1007.0 hPa SE 16.1 km/h 16.1 km/h 69 % 0.0 mm 25.0 W/m2 BKN
20:18 18.4 °C 12.6 °C 1007.0 hPa East 5.6 km/h 5.6 km/h 69 % 0.0 mm 23.0 W/m2 BKN
20:23 18.3 °C 12.5 °C 1007.3 hPa ESE 6.4 km/h 6.4 km/h 69 % 0.0 mm 18.0 W/m2 BKN
20:28 18.1 °C 12.5 °C 1007.3 hPa ESE 13.0 km/h 13.0 km/h 70 % 0.0 mm 21.0 W/m2 BKN
20:33 17.9 °C 12.3 °C 1007.3 hPa SE 8.0 km/h 8.0 km/h 70 % 0.0 mm 14.0 W/m2 BKN
20:38 17.8 °C 12.3 °C 1007.3 hPa ESE 13.0 km/h 13.0 km/h 70 % 0.0 mm 14.0 W/m2 BKN
20:43 17.8 °C 12.2 °C 1007.3 hPa SE 7.4 km/h 7.4 km/h 70 % 0.0 mm 12.0 W/m2 BKN
20:48 17.7 °C 12.3 °C 1007.3 hPa Calm     71 % 0.0 mm 9.0 W/m2 BKN
20:53 17.6 °C 12.3 °C 1007.3 hPa Calm     71 % 0.0 mm 7.0 W/m2 BKN
20:58 17.5 °C 12.2 °C 1007.3 hPa Calm     71 % 0.0 mm 0.0 W/m2 OVC
21:03 17.4 °C 12.1 °C 1007.3 hPa Calm     71 % 0.0 mm 0.0 W/m2 OVC
21:08 17.3 °C 12.2 °C 1007.3 hPa Calm     72 % 0.0 mm 0.0 W/m2 OVC
21:13 17.2 °C 12.1 °C 1007.3 hPa Calm     72 % 0.0 mm 0.0 W/m2 CLR
21:18 17.1 °C 12.0 °C 1007.3 hPa Calm     72 % 0.0 mm 0.0 W/m2 CLR
21:23 17.0 °C 11.9 °C 1007.3 hPa East 3.2 km/h 3.2 km/h 72 % 0.0 mm 0.0 W/m2 CLR
21:28 16.8 °C 11.9 °C 1007.3 hPa Calm     73 % 0.0 mm 0.0 W/m2 CLR
21:33 16.7 °C 11.8 °C 1007.3 hPa Calm     73 % 0.0 mm 0.0 W/m2 CLR
21:38 16.7 °C 12.0 °C 1007.3 hPa Calm     74 % 0.0 mm 0.0 W/m2 CLR
21:43 16.6 °C 11.9 °C 1007.3 hPa Calm     74 % 0.0 mm 0.0 W/m2 CLR
21:44 16.6 °C 11.9 °C 1007.3 hPa Calm     74 % 0.0 mm 0.0 W/m2 CLR
21:49 16.5 °C 11.8 °C 1007.7 hPa Calm     74 % 0.0 mm 0.0 W/m2 CLR
21:54 16.4 °C 11.8 °C 1007.7 hPa ESE 9.3 km/h 9.3 km/h 74 % 0.0 mm 0.0 W/m2 CLR
21:59 16.4 °C 11.8 °C 1008.0 hPa SE 9.3 km/h 9.3 km/h 74 % 0.0 mm 0.0 W/m2 CLR
22:04 16.4 °C 12.0 °C 1008.0 hPa SSE 11.1 km/h 11.1 km/h 75 % 0.0 mm 0.0 W/m2 CLR
22:09 16.4 °C 11.9 °C 1008.0 hPa SE 7.4 km/h 7.4 km/h 75 % 0.0 mm 0.0 W/m2 CLR
22:14 16.4 °C 11.9 °C 1008.0 hPa Calm     75 % 0.0 mm 0.0 W/m2 CLR
22:19 16.3 °C 11.9 °C 1008.0 hPa Calm     75 % 0.0 mm 0.0 W/m2 CLR
22:24 16.3 °C 11.9 °C 1008.0 hPa Calm     75 % 0.0 mm 0.0 W/m2 CLR
22:29 16.3 °C 11.8 °C 1008.0 hPa Calm     75 % 0.0 mm 0.0 W/m2 CLR
22:34 16.4 °C 11.7 °C 1008.0 hPa SSE 9.3 km/h 9.3 km/h 74 % 0.0 mm 0.0 W/m2 CLR
22:39 16.4 °C 11.8 °C 1008.0 hPa SE 8.0 km/h 8.0 km/h 74 % 0.0 mm 0.0 W/m2 CLR
22:44 16.4 °C 11.8 °C 1008.0 hPa Calm     74 % 0.0 mm 0.0 W/m2 CLR
22:49 16.4 °C 11.8 °C 1008.0 hPa Calm     74 % 0.0 mm 0.0 W/m2 CLR
22:54 16.4 °C 11.8 °C 1008.0 hPa Calm     74 % 0.0 mm 0.0 W/m2 CLR
22:59 16.4 °C 11.7 °C 1008.0 hPa Calm     74 % 0.0 mm 0.0 W/m2 CLR
23:04 16.3 °C 11.9 °C 1008.4 hPa Calm     75 % 0.0 mm 0.0 W/m2 CLR
23:09 16.3 °C 11.7 °C 1008.4 hPa Calm     74 % 0.0 mm 0.0 W/m2 CLR
23:14 16.3 °C 11.7 °C 1008.4 hPa Calm     74 % 0.0 mm 0.0 W/m2 CLR
23:19 16.2 °C 11.6 °C 1008.4 hPa Calm     74 % 0.0 mm 0.0 W/m2 CLR
23:24 16.1 °C 11.6 °C 1008.4 hPa Calm     75 % 0.0 mm 0.0 W/m2 CLR
23:29 15.7 °C 11.5 °C 1008.7 hPa NW 13.0 km/h 13.0 km/h 76 % 0.0 mm 0.0 W/m2 CLR
23:34 15.4 °C 11.4 °C 1008.7 hPa Calm     77 % 0.0 mm 0.0 W/m2 CLR
23:39 15.4 °C 11.4 °C 1008.7 hPa Calm     77 % 0.0 mm 0.0 W/m2 CLR
23:44 15.4 °C 11.4 °C 1008.7 hPa Calm     77 % 0.0 mm 0.0 W/m2 CLR
23:49 15.3 °C 11.3 °C 1008.4 hPa Calm     77 % 0.0 mm 0.0 W/m2 CLR
23:54 15.2 °C 11.4 °C 1008.7 hPa Calm     78 % 0.0 mm 0.0 W/m2 CLR
23:59 15.1 °C 11.3 °C 1008.7 hPa Calm     78 % 0.0 mm 0.0 W/m2 CLR
Lo Temps de Massalio
Compliments of Weather Underground - 1.25 mb